Location: ?????
(31.7405°N, 35.1927°E)
Time: 17:18:46
(UTC+00:00)

SJ-7 - Pass Details

Date: 17 February 2020
Orbit: 555 x 603 km, 97.7° (Epoch: 27 March)

Event Time Altitude Azimuth Distance (km) Brightness Sun altitude
Rises 03:24:18 0° 11° (N) 2,856 8.0 -12.5°
Reaches altitude 10° 03:26:29 10° 11° (N) 1,947 7.2 -12.0°
Maximum altitude 03:30:43 86° 284° (WNW) 603 4.4 -11.1°
Drops below altitude 10° 03:34:53 10° 194° (SSW) 1,917 7.0 -10.2°
Sets 03:37:02 0° 194° (SSW) 2,807 7.9 -9.8°
